DW7857 Weather Reports


time (UTC)temp
C
wind
direction
speed
KPH
gust
KPH
rain 1hr
cm
rain 24hr
cm
rain mn
cm
humidity
%
barometer
mb
20260504185403 14 58 3.2 6.4 0.00 0.00 0.00 80 1017.7
20260504184504 14 40 4.8 6.4 0.00 0.00 0.00 80 1017.4
20260504183603 14 73 6.4 9.7 0.00 0.00 0.00 79 1017.5
20260504182703 14 52 4.8 8.0 0.00 0.00 0.00 79 1017.8
20260504181803 14 61 6.4 9.7 0.00 0.00 0.00 78 1017.2
20260504180903 14 86 8.0 9.7 0.00 0.00 0.00 78 1017.4
20260504180214 15 64 6.4 9.7 0.00 0.00 0.00 77 1017.2
20260504175403 15 61 6.4 11.3 0.00 0.00 0.00 77 1017.3
20260504174503 15 52 6.4 11.3 0.00 0.00 0.00 77 1017.4
20260504173603 15 79 6.4 11.3 0.00 0.00 0.00 77 1017.3
20260504172703 15 33 6.4 6.4 0.00 0.00 0.00 76 1017.4
20260504171803 15 65 6.4 6.4 0.00 0.00 0.00 76 1017.2
20260504170903 15 3 6.4 12.9 0.00 0.00 0.00 77 1017.2
20260504170213 15 48 6.4 6.4 0.00 0.00 0.00 78 1017.2
20260504151113 19 219 8.0 9.7 0.00 0.00 0.00 53 1017.1
20260504140903 19 205 9.7 17.7 0.00 0.00 0.00 52 1017.0
20260504100212 17 84 4.8 6.4 0.00 0.00 0.00 60 1017.6
20260504081803 16 214 3.2 3.2 0.00 0.00 0.00 67 1017.2
20260504080903 16 247 1.6 3.2 0.00 0.00 0.00 68 1017.2
20260504070213 15 171 4.8 6.4 0.00 0.00 0.00 78 1016.9
20260504050003 10 225 0.0 1.6 0.00 0.00 0.00 94 1015.6
20260504045403 10 0 0.0 0.0 0.00 0.00 0.00 94 1015.5
20260504044503 10 225 0.0 1.6 0.00 0.00 0.00 94 1015.3
20260504043603 10 225 0.0 3.2 0.00 0.00 0.00 95 1015.4
20260504042703 11 225 0.0 1.6 0.00 0.00 0.00 95 1015.5
20260504041803 11 225 0.0 3.2 0.00 0.00 0.00 95 1015.3
20260504040903 11 184 1.6 3.2 0.00 0.00 0.00 95 1015.5
20260504040003 11 167 1.6 1.6 0.00 0.00 0.00 95 1015.4
20260504035403 11 204 1.6 3.2 0.00 0.00 0.00 95 1015.5
20260504034713 11 207 1.6 3.2 0.00 0.00 0.00 95 1015.3
20260504033812 11 202 1.6 3.2 0.00 0.00 0.00 95 1015.5
20260504032703 11 197 1.6 3.2 0.00 0.00 0.00 95 1015.5
20260504031803 11 198 1.6 3.2 0.00 0.00 0.00 95 1015.6
20260504030903 11 174 1.6 3.2 0.00 0.00 0.00 95 1015.6
20260504030003 11 176 1.6 3.2 0.00 0.00 0.00 95 1015.6
20260504025403 11 180 0.0 1.6 0.00 0.00 0.00 95 1015.6
20260504024503 11 0 0.0 0.0 0.00 0.00 0.00 95 1015.5
20260504023603 11 180 1.6 3.2 0.00 0.00 0.00 95 1015.5
20260504022703 11 134 0.0 3.2 0.00 0.00 0.00 94 1015.7
20260504021803 11 159 1.6 3.2 0.00 0.00 0.00 94 1015.3
20260504020903 11 143 1.6 3.2 0.00 0.00 0.00 94 1015.2
20260504020003 11 169 1.6 3.2 0.00 0.00 0.00 94 1015.5
20260504015403 11 180 0.0 3.2 0.00 0.00 0.00 94 1015.6
20260504014503 11 93 0.0 1.6 0.00 0.00 0.00 94 1015.4
20260504013814 11 116 0.0 1.6 0.00 0.00 0.00 94 1015.6
20260504012913 11 176 1.6 3.2 0.00 0.03 0.00 94 1015.4
20260504011803 11 195 1.6 3.2 0.00 0.03 0.00 94 1015.5
20260504010903 11 159 1.6 3.2 0.00 0.03 0.00 94 1015.3
20260504010004 11 199 3.2 4.8 0.00 0.03 0.00 94 1015.6
20260504005403 11 211 3.2 4.8 0.00 0.03 0.00 94 1015.5
20260504004503 11 188 3.2 4.8 0.00 0.03 0.00 94 1015.4
20260504003603 11 200 3.2 4.8 0.00 0.03 0.00 94 1015.2
20260504002703 11 204 3.2 4.8 0.00 0.05 0.00 94 1015.4
20260504001803 11 201 4.8 6.4 0.00 0.05 0.00 94 1015.4
20260504000903 11 205 3.2 6.4 0.00 0.05 0.00 93 1015.5
20260504000213 11 205 3.2 3.2 0.00 0.05 0.00 93 1015.3
20260503235403 11 208 3.2 3.2 0.00 0.18 0.00 93 1015.4
20260503234503 11 195 3.2 4.8 0.00 0.18 0.00 93 1015.3
20260503233603 11 195 3.2 3.2 0.00 0.18 0.00 93 1015.4
20260503232914 11 171 1.6 3.2 0.00 0.23 0.00 92 1015.3
20260503231803 11 186 1.6 3.2 0.00 0.23 0.00 92 1015.4
20260503230903 11 116 1.6 3.2 0.00 0.23 0.00 92 1015.5
20260503230003 11 144 3.2 6.4 0.00 0.23 0.00 92 1015.6
20260503225403 11 190 4.8 6.4 0.00 0.23 0.23 92 1015.4
20260503224503 11 115 3.2 6.4 0.00 0.23 0.23 92 1014.9
20260503223603 11 201 4.8 8.0 0.00 1.22 0.23 92 1015.2
20260503222703 11 192 3.2 8.0 0.00 1.22 0.23 92 1015.2
20260503221803 11 202 3.2 4.8 0.00 1.22 0.23 92 1015.3
20260503220903 11 208 1.6 3.2 0.00 1.22 0.23 91 1015.0
20260503220003 11 193 1.6 3.2 0.00 1.22 0.23 91 1015.0
20260503215403 11 225 0.0 3.2 0.00 1.22 0.23 91 1015.1
20260503214503 11 184 1.6 3.2 0.00 1.22 0.23 91 1014.8
20260503213814 11 219 1.6 3.2 0.00 1.22 0.23 90 1014.9
20260503212703 11 285 1.6 3.2 0.00 1.22 0.23 90 1015.0
20260503211803 11 212 1.6 3.2 0.00 1.22 0.23 90 1015.0
20260503210903 11 190 3.2 6.4 0.00 1.22 0.23 90 1014.7
20260503210003 11 204 3.2 6.4 0.00 1.22 0.23 90 1014.7
20260503205403 11 194 4.8 6.4 0.00 1.22 0.23 90 1014.6
20260503204503 11 216 4.8 6.4 0.00 1.22 0.23 90 1014.5
20260503203603 11 195 3.2 6.4 0.00 1.22 0.23 90 1014.6
20260503202703 11 191 4.8 6.4 0.00 1.22 0.23 90 1014.5
20260503201803 11 196 4.8 6.4 0.00 1.22 0.23 90 1014.3
20260503200903 11 216 4.8 6.4 0.00 1.22 0.23 90 1014.2
20260503200003 11 195 6.4 6.4 0.00 1.22 0.23 90 1014.1
20260503195403 11 190 4.8 6.4 0.00 1.22 0.23 90 1014.1
20260503194503 11 195 4.8 8.0 0.00 1.22 0.23 89 1013.8
20260503193813 11 190 6.4 8.0 0.00 1.22 0.23 88 1013.9
20260503192703 12 187 6.4 6.4 0.00 1.22 0.23 87 1013.8
20260503191803 12 204 4.8 8.0 0.00 1.22 0.23 85 1013.8
20260503190903 12 212 4.8 6.4 0.00 1.22 0.23 81 1013.6
20260503190003 13 182 4.8 6.4 0.00 1.22 0.23 80 1013.7